TimeCST,TemperatureF,Dew PointF,Humidity,Sea Level PressureIn,VisibilityMPH,Wind Direction,Wind SpeedMPH,Gust SpeedMPH,PrecipitationIn,Events,Conditions,WindDirDegrees,DateUTC
12:56 AM,27.1,21.0,78,30.45,10.0,WNW,8.1,-,N/A,,Clear,290,2012-11-13 06:56:00
1:56 AM,27.1,20.1,75,30.46,10.0,West,5.8,-,N/A,,Clear,270,2012-11-13 07:56:00
2:56 AM,27.1,20.1,75,30.47,10.0,West,4.6,-,N/A,,Clear,270,2012-11-13 08:56:00
3:56 AM,25.2,20.1,81,30.48,10.0,West,4.6,-,N/A,,Clear,260,2012-11-13 09:56:00
4:56 AM,24.1,20.1,85,30.51,10.0,West,4.6,-,N/A,,Clear,260,2012-11-13 10:56:00
5:56 AM,23.0,21.0,92,30.53,10.0,WSW,4.6,-,N/A,,Clear,250,2012-11-13 11:56:00
6:56 AM,24.1,21.0,88,30.55,10.0,WSW,5.8,-,N/A,,Clear,250,2012-11-13 12:56:00
7:56 AM,27.1,22.1,81,30.56,10.0,West,5.8,-,N/A,,Clear,280,2012-11-13 13:56:00
8:56 AM,30.0,20.1,67,30.57,10.0,WNW,4.6,-,N/A,,Clear,300,2012-11-13 14:56:00
9:56 AM,32.9,19.0,57,30.57,10.0,WSW,4.6,-,N/A,,Clear,250,2012-11-13 15:56:00
10:56 AM,36.0,19.0,50,30.57,10.0,West,3.5,-,N/A,,Clear,280,2012-11-13 16:56:00
11:56 AM,36.9,18.1,47,30.55,10.0,Calm,Calm,-,N/A,,Clear,0,2012-11-13 17:56:00
12:56 PM,38.8,18.1,43,30.53,10.0,NNW,4.6,-,N/A,,Clear,330,2012-11-13 18:56:00
1:56 PM,39.9,22.1,49,30.51,10.0,SSW,8.1,-,N/A,,Clear,210,2012-11-13 19:56:00
2:56 PM,39.9,22.1,49,30.51,10.0,West,4.6,-,N/A,,Clear,280,2012-11-13 20:56:00
3:56 PM,38.8,21.0,49,30.51,10.0,Calm,Calm,-,N/A,,Clear,0,2012-11-13 21:56:00
4:56 PM,34.9,22.1,60,30.52,10.0,South,3.5,-,N/A,,Clear,190,2012-11-13 22:56:00
5:56 PM,34.0,22.1,62,30.53,10.0,South,3.5,-,N/A,,Clear,180,2012-11-13 23:56:00
6:56 PM,32.9,22.1,65,30.53,10.0,SSE,6.9,-,N/A,,Clear,160,2012-11-14 00:56:00
7:56 PM,32.0,22.1,67,30.53,10.0,SSE,5.8,-,N/A,,Clear,150,2012-11-14 01:56:00
8:56 PM,30.0,23.0,75,30.53,10.0,SSE,6.9,-,N/A,,Clear,150,2012-11-14 02:56:00
9:56 PM,29.1,23.0,78,30.54,10.0,South,8.1,-,N/A,,Clear,170,2012-11-14 03:56:00
10:56 PM,29.1,24.1,81,30.54,10.0,SSE,6.9,-,N/A,,Clear,160,2012-11-14 04:56:00
11:56 PM,30.0,26.1,85,30.54,10.0,South,6.9,-,N/A,,Clear,180,2012-11-14 05:56:00